DW7220 Weather Reports


Display with metric or nautical units.
time (UTC)temp
F
wind
direction
speed
MPH
gust
MPH
rain 1hr
in
rain 24hr
in
rain mn
in
humidity
%
barometer
mb
20260506214533 81 101 8.0 16.0 0.00 0.00 0.00 64 1015.6
20260506213054 82 104 3.0 15.0 0.00 0.00 0.00 67 1015.6
20260506211612 82 56 7.0 14.0 0.00 0.00 0.00 63 1015.6
20260506210021 83 105 4.0 11.0 0.00 0.00 0.00 63 1015.7
20260506204535 82 103 8.0 12.0 0.00 0.00 0.00 64 1015.6
20260506203046 82 85 6.0 14.0 0.00 0.00 0.00 63 1015.6
20260506201606 82 94 8.0 13.0 0.00 0.00 0.00 65 1015.7
20260506200033 82 129 8.0 14.0 0.00 0.00 0.00 66 1015.8
20260506194534 82 89 8.0 14.0 0.00 0.00 0.00 63 1015.8
20260506193043 82 97 8.0 14.0 0.00 0.00 0.00 60 1015.9
20260506191538 82 77 8.0 14.0 0.00 0.00 0.00 65 1016.0
20260506190052 82 90 8.0 13.0 0.00 0.00 0.00 62 1016.3
20260506184629 83 107 4.0 12.0 0.00 0.00 0.00 63 1016.4
20260506183011 83 95 7.0 12.0 0.00 0.00 0.00 55 1016.6
20260506181523 83 103 7.0 14.0 0.00 0.00 0.00 62 1016.6
20260506180042 83 68 3.0 11.0 0.00 0.00 0.00 67 1016.7
20260506174601 82 127 5.0 13.0 0.00 0.00 0.00 66 1016.9
20260506173006 82 110 6.0 12.0 0.00 0.00 0.00 66 1016.8
20260506171534 83 77 5.0 10.0 0.00 0.00 0.00 67 1016.9
20260506170100 82 93 7.0 11.0 0.00 0.00 0.00 62 1017.0
20260506164624 82 107 7.0 12.0 0.00 0.00 0.00 63 1017.1
20260506163024 82 104 7.0 12.0 0.00 0.00 0.00 68 1017.1
20260506161545 82 122 6.0 12.0 0.00 0.00 0.00 68 1017.2
20260506160116 81 61 6.0 11.0 0.00 0.00 0.00 74 1017.2
20260506154519 81 103 6.0 12.0 0.00 0.00 0.00 71 1017.3
20260506153046 80 101 6.0 11.0 0.00 0.00 0.00 74 1017.3
20260506151617 80 104 6.0 10.0 0.00 0.00 0.00 75 1017.2
20260506150025 80 55 5.0 10.0 0.00 0.00 0.00 76 1017.3
20260506144554 79 94 5.0 10.0 0.00 0.00 0.00 78 1017.1
20260506143103 80 153 3.0 8.0 0.00 0.00 0.00 78 1017.0
20260506141613 79 103 5.0 9.0 0.00 0.00 0.00 80 1017.1
20260506140020 79 108 4.0 8.0 0.00 0.00 0.00 81 1017.0
20260506134536 78 129 3.0 10.0 0.00 0.00 0.00 82 1017.0
20260506133043 78 116 4.0 9.0 0.00 0.00 0.00 82 1016.7
20260506131559 77 104 7.0 12.0 0.00 0.00 0.00 83 1016.7
20260506130003 77 92 3.0 9.0 0.00 0.00 0.00 83 1016.7
20260506124506 77 82 3.0 7.0 0.00 0.00 0.00 84 1016.5
20260506123031 77 104 3.0 7.0 0.00 0.00 0.00 85 1016.6
20260506121558 75 110 0.0 3.0 0.00 0.00 0.00 89 1016.3
20260506120120 74 129 0.0 1.0 0.00 0.00 0.00 92 1016.3
20260506114503 72 141 0.0 0.0 0.00 0.00 0.00 93 1016.3
20260506113008 71 141 0.0 0.0 0.00 0.00 0.00 93 1016.3
20260506111530 71 141 0.0 0.0 0.00 0.00 0.00 93 1016.2
20260506110056 71 141 0.0 0.0 0.00 0.00 0.00 93 1016.1
20260506104502 71 142 0.0 1.0 0.00 0.00 0.00 93 1015.8
20260506103036 70 118 0.0 0.0 0.00 0.00 0.00 93 1015.6
20260506101549 71 118 0.0 1.0 0.00 0.00 0.00 92 1015.5
20260506100059 71 118 0.0 0.0 0.00 0.00 0.00 91 1015.4
20260506094530 72 118 0.0 0.0 0.00 0.00 0.00 91 1015.4
20260506093048 72 118 0.0 1.0 0.00 0.00 0.00 91 1015.4
20260506091559 72 119 0.0 1.0 0.00 0.00 0.00 90 1015.2
20260506090013 73 119 0.0 1.0 0.00 0.00 0.00 90 1015.1
20260506084528 73 120 0.0 2.0 0.00 0.00 0.00 89 1015.1
20260506083047 73 110 0.0 3.0 0.00 0.00 0.00 88 1015.2
20260506081602 74 105 0.0 1.0 0.00 0.00 0.00 87 1015.3
20260506073030 74 89 0.0 2.0 0.00 0.00 0.00 86 1015.4
20260506071554 74 100 1.0 3.0 0.00 0.00 0.00 85 1015.5
20260506070119 75 109 2.0 5.0 0.00 0.00 0.00 85 1015.4
20260506061505 75 96 3.0 6.0 0.00 0.00 0.00 82 1015.5
20260506044554 75 86 4.0 9.0 0.00 0.00 0.00 80 1016.0
20260506043101 75 68 3.0 9.0 0.00 0.00 0.00 80 1016.0
20260506041506 75 81 3.0 8.0 0.00 0.00 0.00 80 1016.2
20260506040021 75 107 4.0 8.0 0.00 0.00 0.00 79 1016.3
20260506034530 75 103 2.0 8.0 0.00 0.00 0.00 78 1016.4
20260506033044 76 105 4.0 9.0 0.00 0.00 0.00 77 1016.5
20260506031603 76 76 3.0 10.0 0.00 0.00 0.00 78 1016.4
20260506030010 76 79 2.0 10.0 0.00 0.00 0.00 77 1016.3
20260506024538 76 35 2.0 8.0 0.00 0.00 0.00 78 1016.1
20260506023106 76 103 4.0 12.0 0.00 0.00 0.00 77 1016.0
20260506021505 76 101 3.0 9.0 0.00 0.00 0.00 78 1016.0
20260506020021 76 55 3.0 11.0 0.00 0.00 0.00 76 1015.9
20260506014530 76 52 3.0 10.0 0.00 0.00 0.00 75 1015.8
20260506013102 76 84 3.0 9.0 0.00 0.00 0.00 74 1015.5
20260506011508 76 79 3.0 10.0 0.00 0.00 0.00 72 1015.4
20260506010019 76 58 5.0 11.0 0.00 0.00 0.00 70 1015.2
20260506004620 76 62 3.0 9.0 0.00 0.00 0.00 70 1015.1
20260506003100 76 57 3.0 10.0 0.00 0.00 0.00 70 1014.9
20260506001515 76 75 4.0 13.0 0.00 0.00 0.00 71 1014.9
20260506000046 76 62 6.0 10.0 0.00 0.00 0.00 72 1014.8
20260505234614 76 70 7.0 13.0 0.00 0.00 0.00 70 1014.6
20260505233111 76 63 7.0 13.0 0.00 0.00 0.00 72 1014.9
20260505231515 77 352 6.0 13.0 0.00 0.00 0.00 72 1014.9
20260505230038 77 50 6.0 16.0 0.00 0.00 0.00 72 1015.1
20260505224607 77 37 8.0 15.0 0.00 0.00 0.00 72 1015.1
20260505223011 77 24 7.0 15.0 0.00 0.00 0.00 72 1015.0
20260505221521 78 65 8.0 16.0 0.00 0.00 0.00 72 1015.0
20260505220055 78 94 8.0 17.0 0.00 0.00 0.00 73 1015.0